GW4812 Weather Reports


time (UTC)temp
C
wind
direction
speed
KPH
gust
KPH
rain 1hr
cm
rain 24hr
cm
rain mn
cm
humidity
%
barometer
mb
20260505171553 26 230 3.2 4.8 0.00 0.00 0.05 41 1010.0
20260505171053 26 218 1.6 3.2 0.00 0.00 0.05 43 1010.0
20260505170552 26 224 3.2 4.8 0.00 0.00 0.05 42 1010.0
20260505170053 26 243 4.8 6.4 0.00 0.00 0.05 43 1010.0
20260505165553 26 226 3.2 4.8 0.00 0.00 0.05 44 1010.0
20260505165059 26 238 3.2 4.8 0.00 0.00 0.05 43 1010.0
20260505164556 26 242 3.2 4.8 0.00 0.00 0.05 43 1010.0
20260505164053 26 252 3.2 4.8 0.00 0.00 0.05 44 1010.0
20260505163553 26 249 4.8 8.0 0.00 0.00 0.05 45 1010.0
20260505163054 26 198 3.2 6.4 0.00 0.00 0.05 45 1010.0
20260505162553 25 258 1.6 3.2 0.00 0.00 0.05 46 1010.0
20260505162055 25 220 1.6 3.2 0.00 0.00 0.05 45 1010.0
20260505161553 25 218 3.2 6.4 0.00 0.00 0.05 46 1010.0
20260505161053 25 278 3.2 4.8 0.00 0.00 0.05 47 1010.0
20260505160554 25 200 3.2 6.4 0.00 0.00 0.05 45 1010.0
20260505153054 23 293 3.2 3.2 0.00 0.00 0.05 50 1011.0
20260505152556 23 213 1.6 3.2 0.00 0.00 0.05 50 1011.0
20260505152055 23 281 3.2 4.8 0.00 0.00 0.05 50 1011.0
20260505151555 23 179 3.2 6.4 0.00 0.00 0.05 51 1011.0
20260505151053 23 237 1.6 3.2 0.00 0.00 0.05 52 1011.0
20260505150553 23 96 1.6 3.2 0.00 0.00 0.05 51 1011.0
20260505140553 20 332 1.6 3.2 0.00 0.00 0.05 60 1012.0
20260505124553 18 264 1.6 4.8 0.00 0.00 0.05 69 1011.0
20260505124053 18 260 3.2 6.4 0.00 0.00 0.05 67 1012.0
20260505123552 18 241 0.0 3.2 0.00 0.00 0.05 70 1011.0
20260505123053 18 257 1.6 3.2 0.00 0.00 0.05 70 1011.0
20260505122552 18 0 0.0 0.0 0.00 0.00 0.05 70 1011.0
20260505122053 17 265 0.0 0.0 0.00 0.00 0.05 71 1011.0
20260505121553 17 212 0.0 3.2 0.00 0.00 0.05 73 1011.0
20260505121052 16 225 0.0 0.0 0.00 0.00 0.05 76 1011.0
20260505120553 15 206 0.0 3.2 0.00 0.00 0.05 77 1011.0
20260505120053 15 198 0.0 1.6 0.00 0.00 0.05 80 1011.0
20260505115553 14 274 1.6 3.2 0.00 0.00 0.05 80 1011.0
20260505115052 13 190 1.6 3.2 0.00 0.00 0.05 87 1011.0
20260505114553 13 267 0.0 1.6 0.00 0.00 0.05 90 1011.0
20260505114053 12 0 0.0 0.0 0.00 0.00 0.05 91 1011.0
20260505113553 12 0 0.0 0.0 0.00 0.00 0.05 91 1011.0
20260505113053 12 133 0.0 1.6 0.00 0.00 0.05 92 1011.0
20260505112552 12 268 0.0 0.0 0.00 0.00 0.05 92 1011.0
20260505112055 12 0 0.0 0.0 0.00 0.00 0.03 92 1011.0
20260505111552 12 234 1.6 1.6 0.00 0.00 0.03 92 1011.0
20260505111052 12 0 0.0 0.0 0.00 0.00 0.03 91 1011.0
20260505110553 12 0 0.0 0.0 0.00 0.00 0.03 91 1011.0
20260505102052 12 237 1.6 1.6 0.13 0.00 0.03 85 1011.0
20260505101552 13 213 3.2 3.2 0.03 0.00 0.03 82 1011.0
20260505101053 13 210 1.6 1.6 0.05 0.00 0.00 78 1011.0
20260505100553 13 241 1.6 3.2 0.00 0.00 0.00 77 1011.0
20260505100053 13 199 0.0 0.0 0.00 0.00 0.00 77 1011.0
20260505095553 13 228 1.6 3.2 0.00 0.00 0.00 76 1011.0
20260505095053 13 221 1.6 3.2 0.00 0.00 0.00 74 1011.0
20260505094552 13 184 0.0 1.6 0.00 0.00 0.00 74 1011.0
20260505094052 13 0 0.0 0.0 0.00 0.00 0.00 73 1011.0
20260505093552 13 196 1.6 4.8 0.00 0.00 0.00 73 1011.0
20260505093055 13 210 1.6 3.2 0.00 0.00 0.00 74 1011.0
20260505092553 13 347 0.0 0.0 0.00 0.00 0.00 74 1011.0
20260505092052 13 0 0.0 0.0 0.00 0.00 0.00 74 1011.0
20260505091552 13 223 0.0 1.6 0.00 0.00 0.00 75 1010.0
20260505091053 12 255 1.6 3.2 0.00 0.00 0.00 75 1010.0
20260505090552 12 236 1.6 3.2 0.00 0.00 0.00 79 1010.0
20260505090053 12 214 1.6 1.6 0.00 0.00 0.00 79 1010.0
20260505085552 12 0 0.0 0.0 0.00 0.00 0.00 79 1010.0
20260505085053 12 0 0.0 0.0 0.00 0.00 0.00 79 1010.0
20260505084552 12 213 1.6 3.2 0.00 0.00 0.00 78 1010.0
20260505084053 12 205 1.6 1.6 0.00 0.00 0.00 76 1010.0
20260505083552 13 264 0.0 1.6 0.00 0.00 0.00 76 1010.0
20260505083052 13 200 0.0 0.0 0.00 0.00 0.00 75 1010.0
20260505082553 13 230 0.0 1.6 0.00 0.00 0.00 76 1010.0
20260505082052 13 206 1.6 1.6 0.00 0.00 0.00 75 1010.0
20260505081553 13 0 0.0 0.0 0.00 0.00 0.00 75 1010.0
20260505081052 13 0 0.0 0.0 0.00 0.00 0.00 75 1010.0
20260505080553 13 200 3.2 3.2 0.00 0.00 0.00 75 1010.0
20260505080054 13 226 0.0 1.6 0.00 0.00 0.00 74 1010.0
20260505075552 13 228 0.0 0.0 0.00 0.00 0.00 74 1010.0
20260505075053 13 224 0.0 1.6 0.00 0.00 0.00 74 1010.0
20260505074553 13 0 0.0 0.0 0.00 0.00 0.00 73 1010.0
20260505074052 13 252 0.0 1.6 0.00 0.00 0.00 74 1010.0
20260505073552 13 242 1.6 3.2 0.00 0.00 0.00 73 1010.0
20260505072606 13 258 0.0 1.6 0.00 0.00 0.00 75 1010.0
20260505072053 12 239 1.6 1.6 0.00 0.00 0.00 75 1010.0
20260505071552 12 0 0.0 0.0 0.00 0.00 0.00 77 1010.0
20260505071053 12 165 0.0 1.6 0.00 0.00 0.00 77 1010.0
20260505070553 12 234 0.0 0.0 0.00 0.00 0.00 78 1010.0
20260505070053 12 0 0.0 0.0 0.00 0.00 0.00 78 1010.0
20260505065552 12 247 0.0 1.6 0.00 0.00 0.00 78 1010.0
20260505065053 12 244 1.6 1.6 0.00 0.00 0.00 79 1010.0
20260505064552 11 187 0.0 1.6 0.00 0.00 0.00 79 1010.0
20260505064052 11 292 1.6 3.2 0.00 0.00 0.00 79 1010.0
20260505063553 11 0 0.0 0.0 0.00 0.00 0.00 81 1010.0
20260505063055 11 248 3.2 3.2 0.00 0.00 0.00 81 1010.0
20260505062553 11 208 0.0 1.6 0.00 0.00 0.00 81 1010.0
20260505062053 11 233 0.0 1.6 0.00 0.00 0.00 81 1010.0
20260505061552 11 272 1.6 1.6 0.00 0.00 0.00 81 1010.0
20260505061053 11 264 1.6 3.2 0.00 0.00 0.00 81 1010.0
20260505060552 11 249 0.0 0.0 0.00 0.00 0.00 81 1010.0
20260505060053 11 235 0.0 1.6 0.00 0.00 0.00 80 1010.0
20260505055552 11 0 0.0 0.0 0.00 0.00 0.00 80 1010.0
20260505055052 11 326 1.6 1.6 0.00 0.00 0.00 79 1010.0
20260505054552 11 0 0.0 0.0 0.00 0.00 0.00 79 1010.0
20260505054054 11 0 0.0 0.0 0.00 0.00 0.00 78 1011.0
20260505053553 11 209 1.6 1.6 0.00 0.00 0.00 78 1011.0
20260505053054 11 263 1.6 1.6 0.00 0.00 0.00 78 1011.0
20260505052553 11 234 0.0 0.0 0.00 0.00 0.00 77 1011.0
20260505052052 11 263 0.0 1.6 0.00 0.00 0.00 76 1011.0
20260505051553 11 274 1.6 1.6 0.00 0.00 0.00 76 1011.0
20260505051054 12 0 0.0 0.0 0.00 0.00 0.00 75 1011.0
20260505050552 12 173 0.0 0.0 0.00 0.00 0.00 75 1011.0
20260505041553 12 0 0.0 0.0 0.00 0.00 0.00 70 1011.0
20260505041057 12 0 0.0 0.0 0.00 0.00 0.00 70 1011.0
20260505040553 12 56 0.0 0.0 0.00 0.00 0.00 70 1011.0
20260505040056 12 218 0.0 0.0 0.00 0.00 0.00 70 1011.0
20260505035553 12 208 1.6 1.6 0.00 0.00 0.00 70 1011.0
20260505035055 12 260 0.0 1.6 0.00 0.00 0.00 69 1011.0
20260505034552 12 0 0.0 0.0 0.00 0.00 0.00 68 1011.0
20260505034054 13 197 0.0 1.6 0.00 0.00 0.00 67 1011.0
20260505033552 13 220 0.0 1.6 0.00 0.00 0.00 67 1011.0
20260505033053 13 0 0.0 0.0 0.00 0.00 0.00 66 1011.0
20260505032553 13 0 0.0 0.0 0.00 0.00 0.00 65 1011.0
20260505032056 13 0 0.0 0.0 0.00 0.00 0.00 66 1011.0
20260505031553 13 265 0.0 0.0 0.00 0.00 0.00 64 1011.0
20260505031053 14 257 0.0 0.0 0.00 0.00 0.00 64 1011.0
20260505030553 14 210 0.0 1.6 0.00 0.00 0.00 63 1011.0
20260505030053 14 0 0.0 0.0 0.00 0.00 0.00 61 1011.0
20260505025552 14 225 1.6 1.6 0.00 0.00 0.00 62 1011.0
20260505025055 14 259 1.6 1.6 0.00 0.00 0.00 60 1011.0
20260505024553 14 16 0.0 1.6 0.00 0.00 0.00 59 1011.0
20260505024053 14 0 0.0 0.0 0.00 0.00 0.00 60 1011.0
20260505023553 14 248 0.0 1.6 0.00 0.00 0.00 59 1011.0
20260505023052 14 0 0.0 0.0 0.00 0.00 0.00 58 1011.0
20260505022552 13 231 0.0 1.6 0.00 0.00 0.00 61 1011.0
20260505022052 13 186 0.0 1.6 0.00 0.00 0.00 62 1011.0
20260505021556 13 0 0.0 0.0 0.00 0.00 0.00 63 1011.0
20260505021053 13 250 0.0 3.2 0.00 0.00 0.00 62 1011.0
20260505020553 13 232 1.6 3.2 0.00 0.00 0.00 64 1011.0
20260505020052 13 0 0.0 0.0 0.00 0.00 0.00 64 1011.0
20260505015553 13 140 0.0 0.0 0.00 0.00 0.00 63 1011.0
20260505015052 14 0 0.0 0.0 0.00 0.00 0.00 65 1011.0
20260505014553 14 262 0.0 3.2 0.00 0.00 0.00 64 1011.0
20260505014055 14 205 0.0 1.6 0.00 0.00 0.00 63 1011.0
20260505013553 14 271 0.0 3.2 0.00 0.00 0.00 63 1011.0
20260505013053 14 249 0.0 1.6 0.00 0.00 0.00 63 1011.0
20260505012554 15 0 0.0 0.0 0.00 0.00 0.00 62 1011.0
20260505012052 15 210 0.0 1.6 0.00 0.00 0.00 62 1011.0
20260505011554 15 291 0.0 1.6 0.00 0.00 0.00 62 1011.0
20260505011054 15 22 0.0 1.6 0.00 0.00 0.00 60 1010.0
20260505010552 15 217 1.6 3.2 0.00 0.00 0.00 59 1010.0
20260505010053 16 249 0.0 0.0 0.00 0.00 0.00 58 1010.0
20260505005552 16 0 0.0 0.0 0.00 0.00 0.00 56 1010.0
20260505005052 16 233 0.0 1.6 0.00 0.00 0.00 56 1010.0
20260505004553 16 253 0.0 1.6 0.00 0.00 0.00 55 1010.0
20260505004055 17 0 0.0 0.0 0.00 0.00 0.00 51 1010.0
20260505003552 17 0 0.0 0.0 0.00 0.00 0.00 49 1010.0
20260505003054 17 208 0.0 3.2 0.00 0.00 0.00 49 1010.0
20260505002552 18 0 0.0 0.0 0.00 0.00 0.00 47 1010.0
20260505002053 18 82 0.0 1.6 0.00 0.00 0.00 45 1010.0
20260505001553 18 309 0.0 0.0 0.00 0.00 0.00 45 1010.0
20260505001053 18 0 0.0 0.0 0.00 0.00 0.00 44 1010.0
20260505000553 18 86 0.0 1.6 0.00 0.00 0.00 44 1010.0
20260505000053 19 178 0.0 1.6 0.00 0.00 0.00 43 1010.0
20260504235553 19 276 0.0 3.2 0.00 0.00 0.00 42 1010.0
20260504235052 19 283 0.0 1.6 0.00 0.00 0.00 43 1010.0
20260504234552 19 263 0.0 3.2 0.00 0.00 0.00 42 1009.0
20260504234053 20 281 1.6 3.2 0.00 0.00 0.00 41 1009.0
20260504233552 20 222 1.6 3.2 0.00 0.00 0.00 41 1009.0
20260504233053 20 327 1.6 1.6 0.00 0.00 0.00 40 1009.0
20260504232552 20 261 1.6 3.2 0.00 0.00 0.00 40 1009.0
20260504232056 20 264 1.6 3.2 0.00 0.00 0.00 40 1009.0
20260504231555 20 238 1.6 3.2 0.00 0.00 0.00 40 1009.0
20260504231059 20 93 1.6 3.2 0.00 0.00 0.00 41 1009.0
20260504230553 21 210 1.6 3.2 0.00 0.00 0.00 40 1009.0
20260504230054 21 197 0.0 1.6 0.00 0.00 0.00 40 1009.0
20260504225552 21 237 1.6 4.8 0.00 0.00 0.00 39 1009.0
20260504225057 21 223 3.2 6.4 0.00 0.00 0.00 39 1009.0
20260504224552 21 208 4.8 11.3 0.00 0.00 0.00 38 1009.0
20260504224052 21 193 1.6 3.2 0.00 0.00 0.00 39 1009.0
20260504223553 21 235 1.6 3.2 0.00 0.00 0.00 38 1009.0
20260504223053 21 217 3.2 4.8 0.00 0.00 0.00 38 1009.0
20260504222555 21 222 4.8 6.4 0.00 0.00 0.00 37 1009.0
20260504222054 21 308 1.6 3.2 0.00 0.00 0.00 38 1009.0
20260504221552 22 209 3.2 4.8 0.00 0.00 0.00 37 1009.0
20260504221053 22 218 1.6 4.8 0.00 0.00 0.00 37 1009.0
20260504220553 22 175 3.2 6.4 0.00 0.00 0.00 36 1009.0
20260504220054 22 216 3.2 3.2 0.00 0.00 0.00 36 1009.0
20260504215554 22 203 4.8 8.0 0.00 0.00 0.00 35 1009.0
20260504215054 22 320 1.6 3.2 0.00 0.00 0.00 36 1009.0
20260504214553 22 301 1.6 3.2 0.00 0.00 0.00 35 1009.0
20260504214053 22 290 1.6 3.2 0.00 0.00 0.00 36 1009.0
20260504213555 22 268 3.2 4.8 0.00 0.00 0.00 37 1009.0
20260504213055 22 224 3.2 4.8 0.00 0.00 0.00 36 1009.0
20260504212555 22 277 3.2 4.8 0.00 0.00 0.00 36 1009.0
20260504212056 22 185 3.2 4.8 0.00 0.00 0.00 35 1009.0
20260504211553 22 272 3.2 6.4 0.00 0.00 0.00 36 1009.0
20260504211056 22 204 1.6 3.2 0.00 0.00 0.00 36 1009.0
20260504210554 23 332 1.6 3.2 0.00 0.00 0.00 35 1010.0
20260504205554 23 46 0.0 3.2 0.00 0.00 0.00 36 1009.0
20260504205052 22 272 3.2 8.0 0.00 0.00 0.00 35 1009.0
20260504204552 22 314 1.6 3.2 0.00 0.00 0.00 36 1009.0
20260504204053 22 222 3.2 6.4 0.00 0.00 0.00 36 1009.0
20260504203553 22 293 3.2 8.0 0.00 0.00 0.00 36 1009.0
20260504203053 22 220 4.8 11.3 0.00 0.00 0.00 35 1009.0
20260504202554 22 208 3.2 6.4 0.00 0.00 0.00 35 1009.0
20260504202053 22 193 1.6 3.2 0.00 0.00 0.00 35 1009.0
20260504201553 22 305 3.2 6.4 0.00 0.00 0.00 37 1010.0
20260504201054 22 197 4.8 17.7 0.00 0.00 0.00 35 1009.0
20260504200554 22 176 3.2 4.8 0.00 0.00 0.00 35 1010.0
20260504200055 22 246 3.2 6.4 0.00 0.00 0.00 34 1010.0
20260504195555 22 287 3.2 4.8 0.00 0.00 0.00 36 1010.0
20260504195054 22 235 3.2 4.8 0.00 0.00 0.00 36 1010.0
20260504194555 22 325 3.2 4.8 0.00 0.00 0.00 36 1010.0
20260504194053 22 343 1.6 4.8 0.00 0.00 0.00 34 1010.0
20260504193554 22 211 3.2 6.4 0.00 0.00 0.00 36 1010.0
20260504193054 21 323 3.2 4.8 0.00 0.00 0.00 36 1010.0
20260504192553 21 247 3.2 4.8 0.00 0.00 0.00 36 1010.0
20260504192052 21 202 1.6 3.2 0.00 0.00 0.00 37 1010.0
20260504191554 21 194 4.8 11.3 0.00 0.00 0.00 35 1010.0
20260504191055 21 228 3.2 4.8 0.00 0.00 0.00 36 1010.0
20260504190553 21 191 6.4 11.3 0.00 0.00 0.00 37 1010.0
20260504190053 21 194 4.8 8.0 0.00 0.00 0.00 36 1010.0
20260504185556 22 287 3.2 6.4 0.00 0.00 0.00 37 1010.0
20260504185052 21 235 1.6 3.2 0.00 0.00 0.00 38 1010.0
20260504184555 21 214 4.8 6.4 0.00 0.00 0.00 37 1010.0
20260504184055 21 258 1.6 3.2 0.00 0.00 0.00 37 1010.0
20260504183558 21 229 4.8 8.0 0.00 0.00 0.00 35 1010.0
20260504183054 21 204 3.2 6.4 0.00 0.00 0.00 35 1010.0
20260504182555 21 199 1.6 3.2 0.00 0.00 0.00 36 1010.0
20260504182100 21 238 4.8 11.3 0.00 0.00 0.00 37 1011.0
20260504181554 21 244 3.2 6.4 0.00 0.00 0.00 38 1011.0
20260504181055 21 246 3.2 6.4 0.00 0.00 0.00 37 1011.0
20260504180556 21 334 3.2 4.8 0.00 0.00 0.00 37 1011.0
20260504180055 21 325 3.2 4.8 0.00 0.00 0.00 38 1011.0
20260504175555 20 142 3.2 9.7 0.00 0.00 0.00 38 1011.0
20260504175054 20 223 3.2 8.0 0.00 0.00 0.00 37 1011.0
20260504174555 20 199 3.2 4.8 0.00 0.00 0.00 38 1011.0
20260504174055 20 206 3.2 6.4 0.00 0.00 0.00 38 1011.0
20260504173554 20 249 3.2 4.8 0.00 0.00 0.00 38 1011.0
20260504173055 20 180 6.4 8.0 0.00 0.00 0.00 37 1011.0
20260504172558 20 153 4.8 8.0 0.00 0.00 0.00 39 1011.0
20260504172055 20 180 3.2 4.8 0.00 0.00 0.00 39 1011.0